User: anonymous
Location: Sun City Center
(27.6996°N, 82.3528°W)
Time: 22:36:27
(UTC-04:00)
Language:

Cosmos 2084 Rocket - Orbit

View from above orbital plane
View from above orbital plane
View from above satellite
View from above satellite

Ground track
Ground track

The orbit data is extracted from the following two-line orbital elements,

1 20666U 90055D   14209.09487139  .00000471  00000-0  66387-4 0  2377
2 20666 062.7879 066.5251 0057334 350.4753 009.5246 14.89711959303843
Epoch (UTC): 28 July 2014 02:16:36
Eccentricity: 0.0057334
inclination: 62.7879°
perigee height: 559 km
apogee height: 639 km
right ascension of ascending node: 66.5251°
argument of perigee: 350.4753°
revolutions per day: 14.89711959
mean anomaly at epoch: 9.5246°
orbit number at epoch: 30384

The dashed part of the orbit path shows where the satellite is in the earth's shadow,  

DLR